Meadow Lake, CO

11:19 AM MDT on June 28, 2017 (GMT -0600)
Meadow Lake

Weather History for KFLY - August, 2014

Change the Weather History Date:

Wednesday, August 13, 2014

  Actual Average (KCOS) Record (KCOS)
Temperature  
Mean Temperature 68 °F -  
Max Temperature 83 °F 80 °F 97 °F (1996)
Min Temperature 54 °F 55 °F 46 °F (2002)
Cooling Degree Days 4    
Growing Degree Days 18 (Base 50)    
Moisture  
Dew Point 47 °F    
Average Humidity 47    
Maximum Humidity 81    
Minimum Humidity 25    
Precipitation  
Precipitation 0.00 in - - ()
Sea Level Pressure  
Sea Level Pressure 30.30 in    
Wind  
Wind Speed 4 mph (SSE)    
Max Wind Speed 12 mph    
Max Gust Speed 16 mph    
Visibility 10 miles    
Events      
Averages and records for this station are not official NWS values.
T = Trace of Precipitation, MM = Missing Value Source: NWS Daily Summary

Daily Weather History Graph

Daily Weather History Graph

Search for Another Location

Airport or City:

Trip Planner

Search our weather history database for the weather conditions in past years. The results will help you decide how hot, cold, wet, or windy it might be!

Date:

Astronomy

Aug. 13, 2014 Rise Set
Actual Time 6:10 AM MDT 7:55 PM MDT
Civil Twilight 5:41 AM MDT 8:24 PM MDT
Nautical Twilight 5:06 AM MDT 8:58 PM MDT
Astronomical Twilight 4:29 AM MDT 9:35 PM MDT
Moon 9:44 PM MDT (8/13) 9:38 AM MDT (8/13)
Length of Visible Light 14h 42m
Length of Day
13h 45m
Waning Gibbous, 87% of the Moon is Illuminated
Aug 13
Waning Gibbous
Aug 17
Last Quarter
Aug 25
New
Sep 2
First Quarter
Sep 8
Full

Hourly Weather History & Observations

Time (MDT) Temp. Dew Point Humidity Pressure Visibility Wind Dir Wind Speed Gust Speed Precip Events Conditions
12:15 AM 61.0 °F 46.6 °F 59% 30.36 in 10.0 mi SW 4.6 mph - N/A   Clear
12:36 AM 61.3 °F 46.0 °F 57% 30.36 in 10.0 mi SW 4.6 mph - N/A   Clear
12:56 AM 59.4 °F 46.8 °F 63% 30.36 in 10.0 mi WSW 4.6 mph - N/A   Clear
1:16 AM 57.2 °F 46.9 °F 69% 30.35 in 10.0 mi SW 4.6 mph - N/A   Clear
1:36 AM 58.3 °F 46.9 °F 66% 30.34 in 10.0 mi Calm Calm - N/A   Clear
1:56 AM 58.1 °F 47.5 °F 68% 30.34 in 10.0 mi Calm Calm - N/A   Clear
2:16 AM 56.8 °F 46.8 °F 69% 30.34 in 10.0 mi West 3.5 mph - N/A   Clear
2:36 AM 56.7 °F 47.5 °F 71% 30.33 in 10.0 mi Calm Calm - N/A   Clear
2:56 AM 55.2 °F 47.5 °F 75% 30.33 in 10.0 mi Calm Calm - N/A   Clear
3:16 AM 56.1 °F 48.2 °F 75% 30.33 in 10.0 mi NNE 3.5 mph - N/A   Clear
3:36 AM 54.7 °F 48.2 °F 79% 30.33 in 10.0 mi North 3.5 mph - N/A   Clear
3:56 AM 54.7 °F 48.6 °F 80% 30.33 in 10.0 mi NNW 3.5 mph - N/A   Clear
4:16 AM 54.0 °F 48.2 °F 81% 30.32 in 10.0 mi North 4.6 mph - N/A   Clear
4:36 AM 54.3 °F 47.3 °F 77% 30.32 in 10.0 mi North 4.6 mph - N/A   Clear
4:56 AM 54.0 °F 46.6 °F 76% 30.31 in 10.0 mi NNW 4.6 mph - N/A   Clear
5:16 AM 54.1 °F 46.6 °F 76% 30.32 in 10.0 mi NNW 3.5 mph - N/A   Clear
5:36 AM 54.1 °F 46.4 °F 75% 30.32 in 10.0 mi NW 4.6 mph - N/A   Clear
7:36 AM 64.4 °F 52.9 °F 66% 30.33 in 10.0 mi Calm Calm - N/A   Clear
8:16 AM 71.6 °F 47.3 °F 42% 30.34 in 10.0 mi SE 3.5 mph - N/A   Clear
8:36 AM 72.9 °F 46.8 °F 39% 30.34 in 10.0 mi SSE 3.5 mph - N/A   Clear
9:16 AM 74.8 °F 45.3 °F 35% 30.34 in 10.0 mi SSE 5.8 mph - N/A   Clear
9:36 AM 75.6 °F 45.9 °F 35% 30.34 in 10.0 mi SSE 4.6 mph - N/A   Clear
9:56 AM 75.6 °F 46.2 °F 35% 30.34 in 10.0 mi SE 6.9 mph - N/A   Clear
10:16 AM 76.3 °F 46.9 °F 35% 30.34 in 10.0 mi SSE 5.8 mph - N/A   Clear
10:36 AM 77.4 °F 46.2 °F 33% 30.34 in 10.0 mi SSE 6.9 mph - N/A   Clear
10:56 AM 78.3 °F 46.4 °F 32% 30.34 in 10.0 mi South 5.8 mph - N/A   Clear
11:16 AM 78.4 °F 46.2 °F 32% 30.33 in 10.0 mi SSE 9.2 mph - N/A   Clear
11:35 AM 78.1 °F 46.0 °F 32% 30.33 in 10.0 mi SE 8.1 mph - N/A   Clear
11:55 AM 78.6 °F 46.2 °F 32% 30.33 in 10.0 mi SSE 10.4 mph - N/A   Clear
12:15 PM 79.0 °F 46.2 °F 31% 30.32 in 10.0 mi SSE 10.4 mph - N/A   Clear
12:35 PM 79.2 °F 46.2 °F 31% 30.32 in 10.0 mi SSE 10.4 mph - N/A   Clear
12:55 PM 79.3 °F 45.0 °F 30% 30.32 in 10.0 mi SSE 5.8 mph - N/A   Clear
1:15 PM 79.9 °F 46.2 °F 30% 30.31 in 10.0 mi South 9.2 mph - N/A   Clear
1:35 PM 80.1 °F 45.9 °F 30% 30.30 in 10.0 mi SE 5.8 mph - N/A   Clear
1:55 PM 81.0 °F 45.3 °F 28% 30.30 in 10.0 mi SSE 4.6 mph - N/A   Clear
2:15 PM 81.7 °F 46.8 °F 29% 30.30 in 10.0 mi SSE 6.9 mph - N/A   Clear
2:35 PM 80.1 °F 44.6 °F 29% 30.29 in 10.0 mi SE 4.6 mph - N/A   Clear
2:55 PM 80.4 °F 45.0 °F 29% 30.29 in 10.0 mi SE 4.6 mph - N/A   Clear
3:15 PM 79.2 °F 45.7 °F 31% 30.28 in 10.0 mi SSE 3.5 mph - N/A   Clear
3:35 PM 82.9 °F 45.1 °F 26% 30.27 in 10.0 mi SSE 3.5 mph - N/A   Clear
3:55 PM 82.4 °F 45.0 °F 27% 30.27 in 10.0 mi SE 3.5 mph - N/A   Clear
4:15 PM 83.1 °F 44.2 °F 25% 30.26 in 10.0 mi Calm Calm - N/A   Clear
4:35 PM 81.5 °F 45.0 °F 28% 30.26 in 10.0 mi SSE 9.2 mph - N/A   Clear
4:55 PM 80.2 °F 45.5 °F 29% 30.25 in 10.0 mi SSE 9.2 mph - N/A   Clear
5:15 PM 81.7 °F 45.9 °F 28% 30.25 in 10.0 mi SSE 9.2 mph - N/A   Clear
5:35 PM 81.7 °F 44.4 °F 27% 30.25 in 10.0 mi South 10.4 mph - N/A   Clear
5:55 PM 80.6 °F 44.1 °F 27% 30.24 in 10.0 mi SSE 11.5 mph 16.1 mph N/A   Clear
6:15 PM 80.4 °F 44.2 °F 28% 30.24 in 10.0 mi SSE 9.2 mph - N/A   Clear
6:55 PM 74.8 °F 46.9 °F 37% 30.25 in 10.0 mi SSE 3.5 mph - N/A   Clear
7:36 PM 72.7 °F 49.1 °F 43% 30.24 in 10.0 mi Calm Calm - N/A   Clear
7:56 PM 71.6 °F 49.1 °F 45% 30.24 in 10.0 mi ESE 3.5 mph - N/A   Clear
10:16 PM 67.3 °F 48.6 °F 51% 30.25 in 10.0 mi Calm Calm - N/A   Mostly Cloudy
10:36 PM 64.6 °F 49.3 °F 58% 30.25 in 10.0 mi Calm Calm - N/A   Mostly Cloudy
10:56 PM 65.7 °F 48.0 °F 53% 30.24 in 10.0 mi Calm Calm - N/A   Clear
11:16 PM 67.1 °F 48.2 °F 51% 30.24 in 10.0 mi Calm Calm - N/A   Clear
11:36 PM 67.1 °F 48.0 °F 50% 30.24 in 10.0 mi Calm Calm - N/A   Clear
11:56 PM 64.2 °F 49.3 °F 58% 30.23 in 10.0 mi NNW 3.5 mph - N/A   Clear